TimeEDT,TemperatureF,Dew PointF,Humidity,Sea Level PressureIn,VisibilityMPH,Wind Direction,Wind SpeedMPH,Gust SpeedMPH,PrecipitationIn,Events,Conditions,WindDirDegrees,DateUTC
12:27 AM,51.8,48.2,88,30.04,4.0,Calm,Calm,-,0.07,Rain,Heavy Rain,0,2012-10-05 04:27:00
12:53 AM,51.1,48.9,92,30.04,5.0,Calm,Calm,-,0.10,Rain,Rain,0,2012-10-05 04:53:00
1:08 AM,51.8,48.2,88,30.03,5.0,Variable,3.5,-,0.03,Rain,Rain,0,2012-10-05 05:08:00
1:38 AM,51.8,48.2,88,30.02,5.0,SE,4.6,-,0.07,Rain,Heavy Rain,140,2012-10-05 05:38:00
1:53 AM,51.1,48.9,92,30.04,5.0,South,3.5,-,0.10,Rain,Rain,170,2012-10-05 05:53:00
2:53 AM,51.1,50.0,96,30.02,5.0,Calm,Calm,-,0.05,,Overcast,0,2012-10-05 06:53:00
3:53 AM,51.1,48.9,92,30.01,10.0,Calm,Calm,-,N/A,,Overcast,0,2012-10-05 07:53:00
4:15 AM,51.8,50.0,94,29.99,9.0,Calm,Calm,-,N/A,,Overcast,0,2012-10-05 08:15:00
4:44 AM,51.8,50.0,94,29.99,2.5,Calm,Calm,-,N/A,,Overcast,0,2012-10-05 08:44:00
4:53 AM,51.1,50.0,96,30.01,2.5,Calm,Calm,-,N/A,,Overcast,0,2012-10-05 08:53:00
5:04 AM,51.8,50.0,94,29.99,4.0,Calm,Calm,-,N/A,,Overcast,0,2012-10-05 09:04:00
5:25 AM,51.8,50.0,94,29.98,1.8,Calm,Calm,-,N/A,,Overcast,0,2012-10-05 09:25:00
5:53 AM,51.1,50.0,96,29.99,2.5,Calm,Calm,-,N/A,,Overcast,0,2012-10-05 09:53:00
6:01 AM,51.8,50.0,94,29.98,4.0,Variable,3.5,-,N/A,,Overcast,0,2012-10-05 10:01:00
6:21 AM,51.8,50.0,94,29.98,2.5,Calm,Calm,-,N/A,,Overcast,0,2012-10-05 10:21:00
6:32 AM,51.8,50.0,94,29.98,4.0,Calm,Calm,-,N/A,,Overcast,0,2012-10-05 10:32:00
6:53 AM,51.1,50.0,96,30.00,4.0,Calm,Calm,-,N/A,,Overcast,0,2012-10-05 10:53:00
7:53 AM,52.0,51.1,97,29.99,6.0,Calm,Calm,-,N/A,,Overcast,0,2012-10-05 11:53:00
8:24 AM,51.8,51.8,100,29.97,2.0,Calm,Calm,-,N/A,,Overcast,0,2012-10-05 12:24:00
8:44 AM,51.8,51.8,100,29.96,3.0,Calm,Calm,-,N/A,,Overcast,0,2012-10-05 12:44:00
8:53 AM,53.1,52.0,96,29.98,4.0,South,3.5,-,N/A,,Overcast,170,2012-10-05 12:53:00
9:53 AM,57.0,54.0,89,29.97,10.0,Variable,3.5,-,N/A,,Overcast,0,2012-10-05 13:53:00
10:21 AM,57.2,53.6,88,29.95,10.0,Calm,Calm,-,N/A,,Overcast,0,2012-10-05 14:21:00
10:53 AM,59.0,55.0,87,29.96,10.0,Variable,4.6,-,N/A,,Overcast,0,2012-10-05 14:53:00
11:53 AM,60.1,55.0,83,29.95,10.0,Variable,5.8,-,N/A,,Overcast,0,2012-10-05 15:53:00
12:26 PM,62.6,55.4,77,29.93,10.0,Variable,3.5,-,N/A,,Overcast,0,2012-10-05 16:26:00
1:01 PM,62.6,55.4,77,29.91,10.0,Variable,3.5,-,N/A,,Overcast,0,2012-10-05 17:01:00
1:53 PM,64.9,57.0,75,29.93,10.0,Calm,Calm,-,N/A,,Overcast,0,2012-10-05 17:53:00
2:22 PM,66.2,57.2,73,29.90,10.0,South,3.5,-,N/A,,Scattered Clouds,190,2012-10-05 18:22:00
2:53 PM,68.0,55.0,63,29.90,10.0,Calm,Calm,-,N/A,,Partly Cloudy,0,2012-10-05 18:53:00
3:53 PM,68.0,57.0,68,29.89,10.0,Variable,3.5,-,N/A,,Clear,0,2012-10-05 19:53:00
4:53 PM,66.9,57.9,73,29.89,10.0,Calm,Calm,-,N/A,,Scattered Clouds,0,2012-10-05 20:53:00
5:53 PM,64.0,57.9,80,29.90,10.0,SSE,3.5,-,N/A,,Mostly Cloudy,160,2012-10-05 21:53:00
6:53 PM,62.1,57.0,84,29.90,10.0,SSE,4.6,-,N/A,,Mostly Cloudy,160,2012-10-05 22:53:00
7:53 PM,61.0,57.0,87,29.90,10.0,SSE,3.5,-,N/A,,Clear,160,2012-10-05 23:53:00
8:53 PM,60.1,57.0,90,29.90,9.0,Variable,3.5,-,N/A,,Scattered Clouds,0,2012-10-06 00:53:00
9:22 PM,60.8,57.2,88,29.88,9.0,Variable,3.5,-,N/A,,Mostly Cloudy,0,2012-10-06 01:22:00
9:53 PM,59.0,57.0,93,29.90,8.0,Calm,Calm,-,N/A,,Scattered Clouds,0,2012-10-06 01:53:00
10:25 PM,59.0,57.2,94,29.88,8.0,Variable,4.6,-,N/A,,Mostly Cloudy,0,2012-10-06 02:25:00
10:53 PM,59.0,57.0,93,29.89,8.0,Variable,4.6,-,N/A,,Overcast,0,2012-10-06 02:53:00
11:53 PM,59.0,57.0,93,29.88,7.0,Variable,4.6,-,0.01,,Overcast,0,2012-10-06 03:53:00